EW5562 Weather Reports


Display with metric or nautical units.
time (UTC)temp
F
wind
direction
speed
MPH
gust
MPH
rain 1hr
in
rain 24hr
in
rain mn
in
humidity
%
barometer
mb
20260508051641 61 324 2.0 6.0 0.00 0.00 0.00 74 1013.6
20260508044652 60 314 3.0 4.0 0.00 0.00 0.00 78 1012.9
20260508041653 59 313 2.0 5.0 0.00 0.00 0.00 76 1012.6
20260508040139 59 276 0.0 0.0 0.00 0.00 0.00 77 1012.1
20260508031639 60 281 0.0 0.0 0.00 0.00 0.00 74 1011.8
20260508024637 60 355 0.0 3.0 0.00 0.00 0.00 76 1011.9
20260508021637 60 357 2.0 4.0 0.00 0.00 0.00 76 1012.0
20260508014637 61 306 2.0 5.0 0.00 0.00 0.00 71 1012.1
20260508011650 62 0 0.0 0.0 0.00 0.00 0.00 66 1012.1
20260508004636 62 316 0.0 0.0 0.00 0.00 0.00 68 1012.5
20260508001636 62 7 0.0 0.0 0.00 0.00 0.00 69 1012.8
20260507234706 63 11 0.0 0.0 0.00 0.00 0.00 68 1012.9
20260507231634 62 13 0.0 2.0 0.00 0.00 0.00 67 1013.2
20260507224634 63 0 2.0 3.0 0.00 0.00 0.00 66 1013.2
20260507223134 64 56 2.0 4.0 0.00 0.00 0.00 60 1013.4
20260507214633 65 49 2.0 4.0 0.00 0.00 0.00 58 1013.5
20260507211633 66 45 4.0 5.0 0.00 0.00 0.00 52 1013.9
20260507204631 65 0 1.0 4.0 0.00 0.00 0.00 55 1014.0
20260507201631 66 305 2.0 4.0 0.00 0.00 0.00 56 1013.9
20260507194631 66 52 2.0 6.0 0.00 0.00 0.00 58 1013.7
20260507191630 67 113 1.0 5.0 0.00 0.00 0.00 59 1013.6
20260507184630 66 56 2.0 6.0 0.00 0.00 0.00 63 1013.2
20260507181630 70 92 4.0 5.0 0.00 0.00 0.00 58 1012.9
20260507174629 71 274 2.0 3.0 0.00 0.00 0.00 56 1012.8
20260507171629 71 296 3.0 6.0 0.00 0.00 0.00 55 1012.9
20260507164628 73 353 5.0 10.0 0.00 0.00 0.00 55 1012.7
20260507163133 73 0 3.0 12.0 0.00 0.00 0.00 54 1012.5
20260507154627 74 35 11.0 15.0 0.00 0.00 0.00 51 1012.2
20260507151627 76 41 10.0 15.0 0.00 0.00 0.00 50 1012.2
20260507144626 78 31 11.0 16.0 0.00 0.00 0.00 45 1012.6
20260507141627 79 37 13.0 16.0 0.00 0.00 0.00 41 1012.5
20260507134626 80 0 9.0 13.0 0.00 0.00 0.00 38 1012.4
20260507131626 81 23 6.0 12.0 0.00 0.00 0.00 39 1012.1
20260507124623 82 252 2.0 5.0 0.00 0.00 0.00 34 1012.5
20260507121624 80 49 3.0 6.0 0.00 0.00 0.00 38 1012.5
20260507114623 80 48 2.0 6.0 0.00 0.00 0.00 37 1012.9
20260507111622 80 234 1.0 4.0 0.00 0.00 0.00 37 1013.0
20260507110124 80 258 4.0 7.0 0.00 0.00 0.00 36 1013.2
20260507101623 78 0 2.0 7.0 0.00 0.00 0.00 42 1013.1
20260507094623 77 0 2.0 5.0 0.00 0.00 0.00 42 1013.2
20260507093138 75 20 2.0 6.0 0.00 0.00 0.00 43 1013.3
20260507084621 74 20 6.0 6.0 0.00 0.00 0.00 45 1013.3
20260507081621 71 0 2.0 5.0 0.00 0.00 0.00 51 1013.5
20260507074621 70 0 2.0 4.0 0.00 0.00 0.00 55 1013.2
20260507071620 67 0 2.0 5.0 0.00 0.00 0.00 59 1013.5
20260507070121 66 327 0.0 3.0 0.00 0.00 0.00 59 1013.7
20260507061618 64 341 2.0 4.0 0.00 0.00 0.00 62 1013.7
20260507054619 61 283 0.0 4.0 0.00 0.00 0.00 69 1013.7